Time,TemperatureF,DewpointF,PressureIn,WindDirection,WindDirectionDegrees,WindSpeedMPH,WindSpeedGustMPH,Humidity,HourlyPrecipIn,Conditions,Clouds,dailyrainin,SoftwareType,DateUTC
2013-08-22 00:01:00,61.0,50.0,29.16,North,0,0.0,0.0,67,0.00,,,0.00,WUHU216HW,2013-08-22 07:01:00,
2013-08-22 00:06:00,61.0,50.0,29.14,North,0,0.0,0.0,67,0.00,,,0.00,WUHU216HW,2013-08-22 07:06:00,
2013-08-22 00:11:00,60.8,49.9,29.16,North,0,0.0,0.0,67,0.00,,,0.00,WUHU216HW,2013-08-22 07:11:00,
2013-08-22 00:16:00,60.8,50.3,29.10,North,0,0.0,0.0,68,0.00,,,0.00,WUHU216HW,2013-08-22 07:16:00,
2013-08-22 00:21:00,60.5,50.0,29.15,North,0,0.0,0.0,68,0.00,,,0.00,WUHU216HW,2013-08-22 07:21:00,
2013-08-22 00:26:00,60.1,50.0,29.11,North,0,0.0,0.0,69,0.00,,,0.00,WUHU216HW,2013-08-22 07:26:00,
2013-08-22 00:31:00,59.9,50.2,29.11,North,0,0.0,0.0,70,0.00,,,0.00,WUHU216HW,2013-08-22 07:31:00,
2013-08-22 00:36:00,59.6,50.6,29.06,North,0,0.0,0.0,72,0.00,,,0.00,WUHU216HW,2013-08-22 07:36:00,
2013-08-22 00:41:00,59.4,50.0,29.07,North,0,0.0,0.0,71,0.00,,,0.00,WUHU216HW,2013-08-22 07:41:00,
2013-08-22 00:46:00,59.4,50.8,29.11,North,0,0.0,0.0,73,0.00,,,0.00,WUHU216HW,2013-08-22 07:46:00,
2013-08-22 00:51:00,59.0,50.4,29.08,North,0,0.0,0.0,73,0.00,,,0.00,WUHU216HW,2013-08-22 07:51:00,
2013-08-22 00:56:00,58.9,50.2,29.06,North,0,0.0,0.0,73,0.00,,,0.00,WUHU216HW,2013-08-22 07:56:00,
2013-08-22 01:01:00,58.7,49.7,29.02,North,0,0.0,0.0,72,0.00,,,0.00,WUHU216HW,2013-08-22 08:01:00,
2013-08-22 01:06:00,58.7,50.0,29.06,North,0,0.0,0.0,73,0.00,,,0.00,WUHU216HW,2013-08-22 08:06:00,
2013-08-22 01:11:00,58.5,49.9,29.00,North,0,0.0,0.0,73,0.00,,,0.00,WUHU216HW,2013-08-22 08:11:00,
2013-08-22 01:16:00,58.5,49.5,29.03,North,0,0.0,0.0,72,0.00,,,0.00,WUHU216HW,2013-08-22 08:16:00,
2013-08-22 01:21:00,58.3,49.7,28.95,North,0,0.0,0.0,73,0.00,,,0.00,WUHU216HW,2013-08-22 08:21:00,
2013-08-22 01:26:00,58.3,49.7,29.03,North,0,0.0,0.0,73,0.00,,,0.00,WUHU216HW,2013-08-22 08:26:00,
2013-08-22 01:31:00,58.0,49.3,28.95,North,0,0.0,0.0,73,0.00,,,0.00,WUHU216HW,2013-08-22 08:31:00,
2013-08-22 01:36:00,58.0,49.3,28.98,North,0,0.0,0.0,73,0.00,,,0.00,WUHU216HW,2013-08-22 08:36:00,
2013-08-22 01:41:00,58.0,49.3,28.93,North,0,0.0,0.0,73,0.00,,,0.00,WUHU216HW,2013-08-22 08:41:00,
2013-08-22 01:46:00,58.0,49.3,28.95,North,0,0.0,0.0,73,0.00,,,0.00,WUHU216HW,2013-08-22 08:46:00,
2013-08-22 01:51:00,58.0,49.3,28.98,North,0,0.0,0.0,73,0.00,,,0.00,WUHU216HW,2013-08-22 08:51:00,
2013-08-22 01:56:00,58.0,49.7,29.00,North,0,0.0,0.0,74,0.00,,,0.00,WUHU216HW,2013-08-22 08:56:00,
2013-08-22 02:01:00,57.8,49.5,28.93,North,0,0.0,0.0,74,0.00,,,0.00,WUHU216HW,2013-08-22 09:01:00,
2013-08-22 02:06:00,57.6,49.3,28.92,North,0,0.0,0.0,74,0.00,,,0.00,WUHU216HW,2013-08-22 09:06:00,
2013-08-22 02:11:00,57.6,49.7,28.96,North,0,0.0,0.0,75,0.00,,,0.00,WUHU216HW,2013-08-22 09:11:00,
2013-08-22 02:16:00,57.4,49.5,28.78,North,0,0.0,0.0,75,0.00,,,0.00,WUHU216HW,2013-08-22 09:16:00,
2013-08-22 02:21:00,57.2,49.7,28.90,North,0,0.0,0.0,76,0.00,,,0.00,WUHU216HW,2013-08-22 09:21:00,
2013-08-22 02:26:00,56.9,49.3,28.81,North,0,0.0,0.0,76,0.00,,,0.00,WUHU216HW,2013-08-22 09:26:00,
2013-08-22 02:31:00,56.9,49.3,28.75,North,0,0.0,0.0,76,0.00,,,0.00,WUHU216HW,2013-08-22 09:31:00,
2013-08-22 02:36:00,56.9,49.3,28.78,North,0,0.0,0.0,76,0.00,,,0.00,WUHU216HW,2013-08-22 09:36:00,
2013-08-22 02:41:00,56.7,49.1,28.70,North,0,0.0,0.0,76,0.00,,,0.00,WUHU216HW,2013-08-22 09:41:00,
2013-08-22 02:46:00,56.7,49.1,28.73,North,0,0.0,0.0,76,0.00,,,0.00,WUHU216HW,2013-08-22 09:46:00,
2013-08-22 02:51:00,56.5,49.0,28.77,North,0,0.0,0.0,76,0.00,,,0.00,WUHU216HW,2013-08-22 09:51:00,
2013-08-22 02:56:00,56.5,49.3,28.66,North,0,0.0,0.0,77,0.00,,,0.00,WUHU216HW,2013-08-22 09:56:00,
2013-08-22 03:01:00,56.2,49.0,28.64,North,0,0.0,0.0,77,0.00,,,0.00,WUHU216HW,2013-08-22 10:01:00,
2013-08-22 03:06:00,56.2,49.3,28.64,North,0,0.0,0.0,78,0.00,,,0.00,WUHU216HW,2013-08-22 10:06:00,
2013-08-22 03:11:00,56.2,49.3,28.64,North,0,0.0,0.0,78,0.00,,,0.00,WUHU216HW,2013-08-22 10:11:00,
2013-08-22 03:16:00,56.0,49.5,28.70,North,0,0.0,0.0,79,0.00,,,0.00,WUHU216HW,2013-08-22 10:16:00,
2013-08-22 03:21:00,56.0,49.5,28.70,North,0,0.0,0.0,79,0.00,,,0.00,WUHU216HW,2013-08-22 10:21:00,
2013-08-22 04:00:00,55.3,48.8,29.58,North,0,0.0,0.0,79,0.00,,,0.00,WUHU216HW,2013-08-22 11:00:00,
2013-08-22 04:02:00,55.3,49.1,28.81,North,0,0.0,0.0,80,0.00,,,0.00,WUHU216HW,2013-08-22 11:02:00,
2013-08-22 04:03:00,55.1,49.0,29.20,North,0,0.0,0.0,80,0.00,,,0.00,WUHU216HW,2013-08-22 11:03:00,
2013-08-22 04:04:00,55.1,49.0,29.21,North,0,0.0,0.0,80,0.00,,,0.00,WUHU216HW,2013-08-22 11:04:00,
2013-08-22 04:05:00,55.1,49.0,29.20,North,0,0.0,0.0,80,0.00,,,0.00,WUHU216HW,2013-08-22 11:05:00,
2013-08-22 04:06:00,55.1,49.0,29.15,North,0,0.0,0.0,80,0.00,,,0.00,WUHU216HW,2013-08-22 11:06:00,
2013-08-22 04:07:00,55.1,49.0,29.09,North,0,0.0,0.0,80,0.00,,,0.00,WUHU216HW,2013-08-22 11:07:00,
2013-08-22 04:09:00,55.1,49.0,29.08,North,0,0.0,0.0,80,0.00,,,0.00,WUHU216HW,2013-08-22 11:09:00,
2013-08-22 04:10:00,55.1,49.1,29.19,North,0,0.0,0.0,80,0.00,,,0.00,WUHU216HW,2013-08-22 11:10:00,
2013-08-22 04:11:00,55.1,49.0,29.07,North,0,0.0,0.0,80,0.00,,,0.00,WUHU216HW,2013-08-22 11:11:00,
2013-08-22 04:12:00,55.1,49.0,29.05,North,0,0.0,0.0,80,0.00,,,0.00,WUHU216HW,2013-08-22 11:12:00,
2013-08-22 04:13:00,55.1,49.1,29.14,North,0,0.0,0.0,80,0.00,,,0.00,WUHU216HW,2013-08-22 11:13:00,
2013-08-22 04:15:00,55.1,49.0,29.01,North,0,0.0,0.0,80,0.00,,,0.00,WUHU216HW,2013-08-22 11:15:00,
2013-08-22 04:16:00,55.1,49.1,29.10,North,0,0.0,0.0,80,0.00,,,0.00,WUHU216HW,2013-08-22 11:16:00,
2013-08-22 04:17:00,55.1,49.0,28.93,North,0,0.0,0.0,80,0.00,,,0.00,WUHU216HW,2013-08-22 11:17:00,
2013-08-22 04:18:00,55.1,49.0,28.96,North,0,0.0,0.0,80,0.00,,,0.00,WUHU216HW,2013-08-22 11:18:00,
2013-08-22 04:20:00,54.9,48.9,28.94,North,0,0.0,0.0,80,0.00,,,0.00,WUHU216HW,2013-08-22 11:20:00,
2013-08-22 04:21:00,54.9,48.9,28.95,North,0,0.0,0.0,80,0.00,,,0.00,WUHU216HW,2013-08-22 11:21:00,
2013-08-22 04:22:00,54.9,48.9,28.96,North,0,0.0,0.0,80,0.00,,,0.00,WUHU216HW,2013-08-22 11:22:00,
2013-08-22 04:23:00,54.7,48.7,28.95,North,0,0.0,0.0,80,0.00,,,0.00,WUHU216HW,2013-08-22 11:23:00,
2013-08-22 04:24:00,54.7,48.7,28.94,North,0,0.0,0.0,80,0.00,,,0.00,WUHU216HW,2013-08-22 11:24:00,
2013-08-22 04:25:00,54.7,48.7,28.92,North,0,0.0,0.0,80,0.00,,,0.00,WUHU216HW,2013-08-22 11:25:00,
2013-08-22 04:26:00,54.7,48.7,28.88,North,0,0.0,0.0,80,0.00,,,0.00,WUHU216HW,2013-08-22 11:26:00,
2013-08-22 04:27:00,54.7,48.7,28.96,North,0,0.0,0.0,80,0.00,,,0.00,WUHU216HW,2013-08-22 11:27:00,
2013-08-22 04:29:00,54.7,48.7,28.83,North,0,0.0,0.0,80,0.00,,,0.00,WUHU216HW,2013-08-22 11:29:00,
2013-08-22 04:30:00,54.7,48.7,28.91,North,0,0.0,0.0,80,0.00,,,0.00,WUHU216HW,2013-08-22 11:30:00,
2013-08-22 04:31:00,54.7,48.7,28.89,North,0,0.0,0.0,80,0.00,,,0.00,WUHU216HW,2013-08-22 11:31:00,
2013-08-22 04:32:00,54.7,48.7,28.88,North,0,0.0,0.0,80,0.00,,,0.00,WUHU216HW,2013-08-22 11:32:00,
2013-08-22 04:33:00,54.7,48.7,28.90,North,0,0.0,0.0,80,0.00,,,0.00,WUHU216HW,2013-08-22 11:33:00,
2013-08-22 04:34:00,54.7,48.7,28.92,North,0,0.0,0.0,80,0.00,,,0.00,WUHU216HW,2013-08-22 11:34:00,
2013-08-22 04:35:00,54.7,48.7,28.86,North,0,0.0,0.0,80,0.00,,,0.00,WUHU216HW,2013-08-22 11:35:00,
2013-08-22 04:36:00,54.7,48.7,28.81,North,0,0.0,0.0,80,0.00,,,0.00,WUHU216HW,2013-08-22 11:36:00,
2013-08-22 04:38:00,54.7,48.7,28.90,North,0,0.0,0.0,80,0.00,,,0.00,WUHU216HW,2013-08-22 11:38:00,
2013-08-22 04:39:00,54.7,48.7,28.85,North,0,0.0,0.0,80,0.00,,,0.00,WUHU216HW,2013-08-22 11:39:00,
2013-08-22 04:40:00,54.5,48.5,28.92,North,0,0.0,0.0,80,0.00,,,0.00,WUHU216HW,2013-08-22 11:40:00,
2013-08-22 04:41:00,54.7,48.7,28.87,North,0,0.0,0.0,80,0.00,,,0.00,WUHU216HW,2013-08-22 11:41:00,
2013-08-22 04:43:00,54.5,48.5,28.84,North,0,0.0,0.0,80,0.00,,,0.00,WUHU216HW,2013-08-22 11:43:00,
2013-08-22 04:44:00,54.5,48.5,28.85,North,0,0.0,0.0,80,0.00,,,0.00,WUHU216HW,2013-08-22 11:44:00,
2013-08-22 04:45:00,54.5,48.5,28.86,North,0,0.0,0.0,80,0.00,,,0.00,WUHU216HW,2013-08-22 11:45:00,
2013-08-22 04:46:00,54.5,48.5,28.88,North,0,0.0,0.0,80,0.00,,,0.00,WUHU216HW,2013-08-22 11:46:00,
2013-08-22 04:48:00,54.5,48.5,28.89,North,0,0.0,0.0,80,0.00,,,0.00,WUHU216HW,2013-08-22 11:48:00,
2013-08-22 04:49:00,54.5,48.5,28.83,North,0,0.0,0.0,80,0.00,,,0.00,WUHU216HW,2013-08-22 11:49:00,
2013-08-22 04:50:00,54.4,48.3,28.88,North,0,0.0,0.0,80,0.00,,,0.00,WUHU216HW,2013-08-22 11:50:00,
2013-08-22 04:52:00,54.4,48.3,28.87,North,0,0.0,0.0,80,0.00,,,0.00,WUHU216HW,2013-08-22 11:52:00,
2013-08-22 04:53:00,54.4,48.3,28.90,North,0,0.0,0.0,80,0.00,,,0.00,WUHU216HW,2013-08-22 11:53:00,
2013-08-22 04:54:00,54.4,48.3,28.85,North,0,0.0,0.0,80,0.00,,,0.00,WUHU216HW,2013-08-22 11:54:00,
2013-08-22 04:55:00,54.4,48.3,28.82,North,0,0.0,0.0,80,0.00,,,0.00,WUHU216HW,2013-08-22 11:55:00,
2013-08-22 04:56:00,54.4,48.3,28.85,North,0,0.0,0.0,80,0.00,,,0.00,WUHU216HW,2013-08-22 11:56:00,
2013-08-22 04:58:00,54.4,48.3,28.88,North,0,0.0,0.0,80,0.00,,,0.00,WUHU216HW,2013-08-22 11:58:00,
2013-08-22 04:59:00,54.4,48.3,28.84,North,0,0.0,0.0,80,0.00,,,0.00,WUHU216HW,2013-08-22 11:59:00,
2013-08-22 05:00:00,54.4,48.4,28.80,North,0,0.0,0.0,80,0.00,,,0.00,WUHU216HW,2013-08-22 12:00:00,
2013-08-22 05:01:00,54.4,48.3,28.80,North,0,0.0,0.0,80,0.00,,,0.00,WUHU216HW,2013-08-22 12:01:00,
2013-08-22 05:02:00,54.4,48.4,28.85,North,0,0.0,0.0,80,0.00,,,0.00,WUHU216HW,2013-08-22 12:02:00,
2013-08-22 05:04:00,54.4,48.3,28.71,North,0,0.0,0.0,80,0.00,,,0.00,WUHU216HW,2013-08-22 12:04:00,
2013-08-22 05:05:00,54.4,48.3,28.64,North,0,0.0,0.0,80,0.00,,,0.00,WUHU216HW,2013-08-22 12:05:00,
2013-08-22 05:06:00,54.4,48.7,28.76,North,0,0.0,0.0,81,0.00,,,0.00,WUHU216HW,2013-08-22 12:06:00,
2013-08-22 05:08:00,54.2,48.2,28.73,North,0,0.0,0.0,80,0.00,,,0.00,WUHU216HW,2013-08-22 12:08:00,
2013-08-22 05:10:00,54.2,48.2,28.74,North,0,0.0,0.0,80,0.00,,,0.00,WUHU216HW,2013-08-22 12:10:00,
2013-08-22 05:11:00,54.2,48.2,28.65,North,0,0.0,0.0,80,0.00,,,0.00,WUHU216HW,2013-08-22 12:11:00,
2013-08-22 05:14:00,54.0,48.1,28.73,North,0,0.0,0.0,80,0.00,,,0.00,WUHU216HW,2013-08-22 12:14:00,
2013-08-22 05:15:00,54.0,48.1,28.73,North,0,0.0,0.0,80,0.00,,,0.00,WUHU216HW,2013-08-22 12:15:00,
2013-08-22 05:16:00,54.0,48.1,28.69,North,0,0.0,0.0,80,0.00,,,0.00,WUHU216HW,2013-08-22 12:16:00,
2013-08-22 05:18:00,54.0,48.1,28.64,North,0,0.0,0.0,80,0.00,,,0.00,WUHU216HW,2013-08-22 12:18:00,
2013-08-22 05:27:00,53.8,48.2,28.73,North,0,0.0,0.0,81,0.00,,,0.00,WUHU216HW,2013-08-22 12:27:00,
2013-08-22 05:32:00,53.8,48.5,28.60,North,0,0.0,0.0,82,0.00,,,0.00,WUHU216HW,2013-08-22 12:32:00,
2013-08-22 05:37:00,53.6,48.0,28.74,North,0,0.0,0.0,81,0.00,,,0.00,WUHU216HW,2013-08-22 12:37:00,
2013-08-22 05:42:00,53.6,47.9,28.72,North,0,0.0,0.0,81,0.00,,,0.00,WUHU216HW,2013-08-22 12:42:00,
2013-08-22 05:47:00,53.6,48.0,28.63,North,0,0.0,0.0,81,0.00,,,0.00,WUHU216HW,2013-08-22 12:47:00,
2013-08-22 05:52:00,53.6,47.7,28.69,North,0,0.0,0.0,80,0.00,,,0.00,WUHU216HW,2013-08-22 12:52:00,
2013-08-22 05:57:00,53.6,48.0,28.64,North,0,0.0,0.0,81,0.00,,,0.00,WUHU216HW,2013-08-22 12:57:00,
2013-08-22 06:00:00,53.6,48.0,28.67,North,0,0.0,0.0,81,0.00,,,0.00,WUHU216HW,2013-08-22 13:00:00,
2013-08-22 06:05:00,53.5,47.5,28.82,North,0,0.0,0.0,80,0.00,,,0.00,WUHU216HW,2013-08-22 13:05:00,
2013-08-22 06:10:00,53.5,47.8,28.71,North,0,0.0,0.0,81,0.00,,,0.00,WUHU216HW,2013-08-22 13:10:00,
2013-08-22 06:15:00,53.5,47.8,28.82,North,0,0.0,0.0,81,0.00,,,0.00,WUHU216HW,2013-08-22 13:15:00,
2013-08-22 06:20:00,53.5,47.8,28.68,North,0,0.0,0.0,81,0.00,,,0.00,WUHU216HW,2013-08-22 13:20:00,
2013-08-22 06:25:00,53.5,47.8,28.70,North,0,0.0,0.0,81,0.00,,,0.00,WUHU216HW,2013-08-22 13:25:00,
2013-08-22 06:30:00,53.5,47.8,28.71,North,0,0.0,0.0,81,0.00,,,0.00,WUHU216HW,2013-08-22 13:30:00,
2013-08-22 06:35:00,53.5,47.8,28.72,North,0,0.0,0.0,81,0.00,,,0.00,WUHU216HW,2013-08-22 13:35:00,
2013-08-22 06:40:00,53.6,48.0,28.77,North,0,0.0,0.0,81,0.00,,,0.00,WUHU216HW,2013-08-22 13:40:00,
2013-08-22 06:45:00,53.5,47.5,28.71,North,0,0.0,0.0,80,0.00,,,0.00,WUHU216HW,2013-08-22 13:45:00,
2013-08-22 06:50:00,53.6,47.7,28.71,North,0,0.0,0.0,80,0.00,,,0.00,WUHU216HW,2013-08-22 13:50:00,
2013-08-22 06:55:00,53.6,48.6,28.71,North,0,0.0,0.0,83,0.00,,,0.00,WUHU216HW,2013-08-22 13:55:00,
2013-08-22 06:59:00,53.6,48.6,28.61,North,0,0.0,0.0,83,0.00,,,0.00,WUHU216HW,2013-08-22 13:59:00,
2013-08-22 07:00:00,53.6,48.6,28.61,North,0,0.0,0.0,83,0.00,,,0.00,WUHU216HW,2013-08-22 14:00:00,
2013-08-22 07:05:00,53.6,48.6,28.61,North,0,0.0,0.0,83,0.00,,,0.00,WUHU216HW,2013-08-22 14:05:00,
2013-08-22 08:00:00,58.7,53.2,29.59,North,0,0.0,0.0,82,0.00,,,0.00,WUHU216HW,2013-08-22 15:00:00,
2013-08-22 08:05:00,59.0,53.6,29.22,North,0,0.0,0.0,82,0.00,,,0.00,WUHU216HW,2013-08-22 15:05:00,
2013-08-22 08:10:00,59.4,53.7,29.20,North,0,0.0,0.0,81,0.00,,,0.00,WUHU216HW,2013-08-22 15:10:00,
2013-08-22 08:15:00,59.4,53.9,29.13,North,0,0.0,0.0,82,0.00,,,0.00,WUHU216HW,2013-08-22 15:15:00,
2013-08-22 08:20:00,59.6,53.8,29.10,North,0,0.0,0.0,81,0.00,,,0.00,WUHU216HW,2013-08-22 15:20:00,
2013-08-22 08:25:00,59.8,54.0,29.06,North,0,0.0,0.0,81,0.00,,,0.00,WUHU216HW,2013-08-22 15:25:00,
2013-08-22 08:30:00,60.1,54.4,29.03,North,0,0.0,0.0,81,0.00,,,0.00,WUHU216HW,2013-08-22 15:30:00,
2013-08-22 08:35:00,60.7,54.9,29.07,North,0,0.0,0.0,81,0.00,,,0.00,WUHU216HW,2013-08-22 15:35:00,
2013-08-22 08:40:00,60.8,54.7,28.98,North,0,0.0,0.0,80,0.00,,,0.00,WUHU216HW,2013-08-22 15:40:00,
2013-08-22 08:45:00,61.2,55.1,29.02,North,0,0.0,0.0,80,0.00,,,0.00,WUHU216HW,2013-08-22 15:45:00,
2013-08-22 08:50:00,61.9,55.7,28.97,North,0,0.0,0.0,80,0.00,,,0.00,WUHU216HW,2013-08-22 15:50:00,
2013-08-22 08:55:00,62.6,56.0,29.01,North,0,0.0,0.0,79,0.00,,,0.00,WUHU216HW,2013-08-22 15:55:00,
2013-08-22 09:00:00,62.8,55.8,28.93,North,0,0.0,0.0,78,0.00,,,0.00,WUHU216HW,2013-08-22 16:00:00,
2013-08-22 09:05:00,63.2,56.2,28.74,North,0,0.0,0.0,78,0.00,,,0.00,WUHU216HW,2013-08-22 16:05:00,
2013-08-22 09:08:00,63.7,57.1,28.61,North,0,0.0,0.0,79,0.00,,,0.00,WUHU216HW,2013-08-22 16:08:00,
2013-08-22 09:10:00,63.7,57.1,28.61,North,0,0.0,0.0,79,0.00,,,0.00,WUHU216HW,2013-08-22 16:10:00,
2013-08-22 09:15:00,63.7,57.1,28.61,North,0,0.0,0.0,79,0.00,,,0.00,WUHU216HW,2013-08-22 16:15:00,
2013-08-22 10:00:00,68.9,58.8,29.58,North,0,0.0,0.0,70,0.00,,,0.00,WUHU216HW,2013-08-22 17:00:00,
2013-08-22 10:05:00,69.5,59.2,29.38,North,0,0.0,0.0,70,0.00,,,0.00,WUHU216HW,2013-08-22 17:05:00,
2013-08-22 10:10:00,69.8,58.8,29.34,North,0,0.0,0.0,68,0.00,,,0.00,WUHU216HW,2013-08-22 17:10:00,
2013-08-22 10:15:00,69.8,58.0,29.14,North,0,0.0,0.0,66,0.00,,,0.00,WUHU216HW,2013-08-22 17:15:00,
2013-08-22 10:20:00,69.8,58.3,29.18,North,0,0.0,0.0,67,0.00,,,0.00,WUHU216HW,2013-08-22 17:20:00,
2013-08-22 10:25:00,70.0,58.2,29.14,North,0,0.0,0.0,66,0.00,,,0.00,WUHU216HW,2013-08-22 17:25:00,
2013-08-22 10:30:00,70.4,58.4,29.16,North,0,0.0,0.0,66,0.00,,,0.00,WUHU216HW,2013-08-22 17:30:00,
2013-08-22 10:35:00,70.9,59.0,29.06,North,0,0.0,0.0,66,0.00,,,0.00,WUHU216HW,2013-08-22 17:35:00,
2013-08-22 10:40:00,71.6,60.1,29.08,North,0,0.0,0.0,67,0.00,,,0.00,WUHU216HW,2013-08-22 17:40:00,
2013-08-22 10:45:00,72.4,60.8,29.10,North,0,0.0,0.0,67,0.00,,,0.00,WUHU216HW,2013-08-22 17:45:00,
2013-08-22 10:50:00,73.1,61.0,29.07,North,0,0.0,0.0,66,0.00,,,0.00,WUHU216HW,2013-08-22 17:50:00,
2013-08-22 10:55:00,73.6,61.1,29.07,North,0,0.0,0.0,65,0.00,,,0.00,WUHU216HW,2013-08-22 17:55:00,
2013-08-22 11:00:00,74.0,61.0,29.05,North,0,0.0,0.0,64,0.00,,,0.00,WUHU216HW,2013-08-22 18:00:00,
2013-08-22 11:05:00,74.2,60.8,28.78,North,0,0.0,0.0,63,0.00,,,0.00,WUHU216HW,2013-08-22 18:05:00,
2013-08-22 11:10:00,74.5,61.1,28.69,North,0,0.0,0.0,63,0.00,,,0.00,WUHU216HW,2013-08-22 18:10:00,
2013-08-22 11:15:00,74.3,61.1,28.77,North,0,0.0,0.0,63,0.00,,,0.00,WUHU216HW,2013-08-22 18:15:00,
2013-08-22 11:20:00,74.2,60.8,28.61,North,0,0.0,0.0,63,0.00,,,0.00,WUHU216HW,2013-08-22 18:20:00,
2013-08-22 11:25:00,74.0,60.6,28.67,North,0,0.0,0.0,63,0.00,,,0.00,WUHU216HW,2013-08-22 18:25:00,
2013-08-22 11:30:00,73.8,60.4,28.70,North,0,0.0,0.0,63,0.00,,,0.00,WUHU216HW,2013-08-22 18:30:00,
2013-08-22 11:35:00,74.2,60.8,28.70,North,0,0.0,0.0,63,0.00,,,0.00,WUHU216HW,2013-08-22 18:35:00,
2013-08-22 11:40:00,74.5,61.1,28.67,North,0,0.0,0.0,63,0.00,,,0.00,WUHU216HW,2013-08-22 18:40:00,
2013-08-22 11:45:00,74.5,60.2,28.68,North,0,0.0,0.0,61,0.00,,,0.00,WUHU216HW,2013-08-22 18:45:00,
2013-08-22 11:50:00,74.5,60.2,28.65,North,0,0.0,0.0,61,0.00,,,0.00,WUHU216HW,2013-08-22 18:50:00,
2013-08-22 11:55:00,74.5,60.2,28.65,North,0,0.0,0.0,61,0.00,,,0.00,WUHU216HW,2013-08-22 18:55:00,
2013-08-22 12:00:00,74.5,60.2,28.65,North,0,0.0,0.0,61,0.00,,,0.00,WUHU216HW,2013-08-22 19:00:00,
2013-08-22 12:05:00,75.1,59.8,29.12,North,0,0.0,0.0,59,0.00,,,0.00,WUHU216HW,2013-08-22 19:05:00,
2013-08-22 12:10:00,74.9,60.1,29.01,North,0,0.0,0.0,60,0.00,,,0.00,WUHU216HW,2013-08-22 19:10:00,
2013-08-22 12:15:00,74.9,60.1,29.01,North,0,0.0,0.0,60,0.00,,,0.00,WUHU216HW,2013-08-22 19:15:00,
2013-08-22 12:20:00,75.6,60.9,29.07,North,0,0.0,0.0,60,0.00,,,0.00,WUHU216HW,2013-08-22 19:20:00,
2013-08-22 12:25:00,76.1,61.3,29.01,North,0,0.0,0.0,60,0.00,,,0.00,WUHU216HW,2013-08-22 19:25:00,
2013-08-22 12:30:00,76.3,59.9,29.06,North,0,0.0,0.0,57,0.00,,,0.00,WUHU216HW,2013-08-22 19:30:00,
2013-08-22 12:35:00,76.3,60.9,29.01,North,0,0.0,0.0,59,0.00,,,0.00,WUHU216HW,2013-08-22 19:35:00,
2013-08-22 12:40:00,76.7,61.3,29.04,North,0,0.0,0.0,59,0.00,,,0.00,WUHU216HW,2013-08-22 19:40:00,
2013-08-22 12:45:00,76.7,59.8,28.96,North,0,0.0,0.0,56,0.00,,,0.00,WUHU216HW,2013-08-22 19:45:00,
2013-08-22 12:50:00,76.0,59.6,29.02,North,0,0.0,0.0,57,0.00,,,0.00,WUHU216HW,2013-08-22 19:50:00,
2013-08-22 12:55:00,76.0,60.7,29.02,North,0,0.0,0.0,59,0.00,,,0.00,WUHU216HW,2013-08-22 19:55:00,
2013-08-22 13:00:00,76.5,60.1,29.03,North,0,0.0,0.0,57,0.00,,,0.00,WUHU216HW,2013-08-22 20:00:00,
2013-08-22 13:05:00,77.0,61.1,28.98,North,0,0.0,0.0,58,0.00,,,0.00,WUHU216HW,2013-08-22 20:05:00,
2013-08-22 13:10:00,77.4,60.9,28.96,North,0,0.0,0.0,57,0.00,,,0.00,WUHU216HW,2013-08-22 20:10:00,
2013-08-22 13:15:00,78.1,60.6,29.02,North,0,0.0,0.0,55,0.00,,,0.00,WUHU216HW,2013-08-22 20:15:00,
2013-08-22 13:20:00,78.5,61.5,28.96,North,0,0.0,0.0,56,0.00,,,0.00,WUHU216HW,2013-08-22 20:20:00,
2013-08-22 13:24:00,79.6,61.9,29.04,North,0,0.0,0.0,55,0.00,,,0.00,WUHU216HW,2013-08-22 20:24:00,
2013-08-22 13:30:00,79.9,61.2,28.92,North,0,0.0,0.0,53,0.00,,,0.00,WUHU216HW,2013-08-22 20:30:00,
2013-08-22 13:34:00,80.3,62.1,29.01,North,0,0.0,0.0,54,0.00,,,0.00,WUHU216HW,2013-08-22 20:34:00,
2013-08-22 13:40:00,81.2,62.9,29.00,North,0,0.0,0.0,54,0.00,,,0.00,WUHU216HW,2013-08-22 20:40:00,
2013-08-22 13:44:00,81.5,62.2,29.03,North,0,0.0,0.0,52,0.00,,,0.00,WUHU216HW,2013-08-22 20:44:00,
2013-08-22 13:49:00,82.1,62.6,29.00,North,0,0.0,0.0,52,0.00,,,0.00,WUHU216HW,2013-08-22 20:49:00,
2013-08-22 13:54:00,81.7,60.7,28.93,North,0,0.0,0.0,49,0.00,,,0.00,WUHU216HW,2013-08-22 20:54:00,
2013-08-22 14:00:00,81.0,60.7,29.05,North,0,0.0,0.0,50,0.00,,,0.00,WUHU216HW,2013-08-22 21:00:00,
2013-08-22 14:04:00,81.0,61.1,28.96,North,0,0.0,0.0,51,0.00,,,0.00,WUHU216HW,2013-08-22 21:04:00,
2013-08-22 14:09:00,81.4,60.9,29.01,North,0,0.0,0.0,50,0.00,,,0.00,WUHU216HW,2013-08-22 21:09:00,
2013-08-22 14:14:00,81.7,61.8,28.94,North,0,0.0,0.0,51,0.00,,,0.00,WUHU216HW,2013-08-22 21:14:00,
2013-08-22 14:19:00,82.3,62.3,29.07,North,0,0.0,0.0,51,0.00,,,0.00,WUHU216HW,2013-08-22 21:19:00,
2013-08-22 14:24:00,83.0,63.0,29.01,North,0,0.0,0.0,51,0.00,,,0.00,WUHU216HW,2013-08-22 21:24:00,
2013-08-22 14:29:00,83.2,62.6,29.06,North,0,0.0,0.0,50,0.00,,,0.00,WUHU216HW,2013-08-22 21:29:00,
2013-08-22 14:34:00,83.7,63.2,29.01,North,0,0.0,0.0,50,0.00,,,0.00,WUHU216HW,2013-08-22 21:34:00,
2013-08-22 14:39:00,83.9,63.4,29.05,North,0,0.0,0.0,50,0.00,,,0.00,WUHU216HW,2013-08-22 21:39:00,
2013-08-22 14:44:00,83.9,62.7,29.03,North,0,0.0,0.0,49,0.00,,,0.00,WUHU216HW,2013-08-22 21:44:00,
2013-08-22 14:49:00,83.9,62.7,29.08,North,0,0.0,0.0,49,0.00,,,0.00,WUHU216HW,2013-08-22 21:49:00,
2013-08-22 14:54:00,84.1,62.9,29.03,North,0,0.0,0.0,49,0.00,,,0.00,WUHU216HW,2013-08-22 21:54:00,
2013-08-22 14:59:00,83.7,62.6,28.95,North,0,0.0,0.0,49,0.00,,,0.00,WUHU216HW,2013-08-22 21:59:00,
2013-08-22 15:04:00,83.7,62.6,29.08,North,0,0.0,0.0,49,0.00,,,0.00,WUHU216HW,2013-08-22 22:04:00,
2013-08-22 15:09:00,83.7,62.6,29.07,North,0,0.0,0.0,49,0.00,,,0.00,WUHU216HW,2013-08-22 22:09:00,
2013-08-22 15:14:00,83.5,61.7,29.05,North,0,0.0,0.0,48,0.00,,,0.00,WUHU216HW,2013-08-22 22:14:00,
2013-08-22 15:19:00,83.3,61.6,29.06,North,0,0.0,0.0,48,0.00,,,0.00,WUHU216HW,2013-08-22 22:19:00,
2013-08-22 15:24:00,83.3,62.2,29.12,North,0,0.0,0.0,49,0.00,,,0.00,WUHU216HW,2013-08-22 22:24:00,
2013-08-22 15:29:00,83.5,62.4,29.06,North,0,0.0,0.0,49,0.00,,,0.00,WUHU216HW,2013-08-22 22:29:00,
2013-08-22 15:34:00,83.2,61.4,29.11,North,0,0.0,0.0,48,0.00,,,0.00,WUHU216HW,2013-08-22 22:34:00,
2013-08-22 15:39:00,83.0,61.8,29.06,North,0,0.0,0.0,49,0.00,,,0.00,WUHU216HW,2013-08-22 22:39:00,
2013-08-22 15:44:00,83.0,61.2,29.13,North,0,0.0,0.0,48,0.00,,,0.00,WUHU216HW,2013-08-22 22:44:00,
2013-08-22 15:49:00,82.8,61.0,29.00,North,0,0.0,0.0,48,0.00,,,0.00,WUHU216HW,2013-08-22 22:49:00,
2013-08-22 15:54:00,82.8,61.0,29.09,North,0,0.0,0.0,48,0.00,,,0.00,WUHU216HW,2013-08-22 22:54:00,
2013-08-22 15:59:00,82.4,60.7,29.02,North,0,0.0,0.0,48,0.00,,,0.00,WUHU216HW,2013-08-22 22:59:00,
2013-08-22 16:04:00,82.1,60.4,29.11,North,0,0.0,0.0,48,0.00,,,0.00,WUHU216HW,2013-08-22 23:04:00,
2013-08-22 16:09:00,81.9,60.2,29.12,North,0,0.0,0.0,48,0.00,,,0.00,WUHU216HW,2013-08-22 23:09:00,
2013-08-22 16:14:00,81.7,60.0,29.07,North,0,0.0,0.0,48,0.00,,,0.00,WUHU216HW,2013-08-22 23:14:00,
2013-08-22 16:19:00,81.5,59.9,29.10,North,0,0.0,0.0,48,0.00,,,0.00,WUHU216HW,2013-08-22 23:19:00,
2013-08-22 16:24:00,81.7,60.7,29.02,North,0,0.0,0.0,49,0.00,,,0.00,WUHU216HW,2013-08-22 23:24:00,
2013-08-22 16:29:00,81.7,60.0,29.15,North,0,0.0,0.0,48,0.00,,,0.00,WUHU216HW,2013-08-22 23:29:00,
2013-08-22 16:34:00,81.7,60.2,29.09,North,0,0.0,0.0,48,0.00,,,0.00,WUHU216HW,2013-08-22 23:34:00,
2013-08-22 16:39:00,82.1,60.4,29.07,North,0,0.0,0.0,48,0.00,,,0.00,WUHU216HW,2013-08-22 23:39:00,
2013-08-22 16:44:00,82.3,60.6,29.03,North,0,0.0,0.0,48,0.00,,,0.00,WUHU216HW,2013-08-22 23:44:00,
2013-08-22 16:49:00,82.3,60.6,29.13,North,0,0.0,0.0,48,0.00,,,0.00,WUHU216HW,2013-08-22 23:49:00,
2013-08-22 16:54:00,82.3,61.1,29.12,North,0,0.0,0.0,49,0.00,,,0.00,WUHU216HW,2013-08-22 23:54:00,
2013-08-22 16:59:00,82.1,61.0,29.14,North,0,0.0,0.0,49,0.00,,,0.00,WUHU216HW,2013-08-22 23:59:00,
2013-08-22 17:04:00,81.9,60.9,29.10,North,0,0.0,0.0,49,0.00,,,0.00,WUHU216HW,2013-08-23 00:04:00,
2013-08-22 17:09:00,81.7,60.7,29.15,North,0,0.0,0.0,49,0.00,,,0.00,WUHU216HW,2013-08-23 00:09:00,
2013-08-22 17:14:00,81.4,60.9,29.17,North,0,0.0,0.0,50,0.00,,,0.00,WUHU216HW,2013-08-23 00:14:00,
2013-08-22 17:19:00,81.4,60.9,29.14,North,0,0.0,0.0,50,0.00,,,0.00,WUHU216HW,2013-08-23 00:19:00,
2013-08-22 17:24:00,81.2,60.8,29.18,North,0,0.0,0.0,50,0.00,,,0.00,WUHU216HW,2013-08-23 00:24:00,
2013-08-22 17:29:00,81.0,60.7,29.17,North,0,0.0,0.0,50,0.00,,,0.00,WUHU216HW,2013-08-23 00:29:00,
2013-08-22 17:34:00,80.5,60.7,28.90,North,0,0.0,0.0,51,0.00,,,0.00,WUHU216HW,2013-08-23 00:34:00,
2013-08-22 17:39:00,80.3,60.5,28.85,North,0,0.0,0.0,51,0.00,,,0.00,WUHU216HW,2013-08-23 00:39:00,
2013-08-22 17:44:00,79.7,60.6,28.93,North,0,0.0,0.0,52,0.00,,,0.00,WUHU216HW,2013-08-23 00:44:00,
2013-08-22 17:49:00,79.4,60.2,28.87,North,0,0.0,0.0,52,0.00,,,0.00,WUHU216HW,2013-08-23 00:49:00,
2013-08-22 17:54:00,78.8,60.2,28.87,North,0,0.0,0.0,53,0.00,,,0.00,WUHU216HW,2013-08-23 00:54:00,
2013-08-22 17:59:00,78.5,60.0,28.81,North,0,0.0,0.0,53,0.00,,,0.00,WUHU216HW,2013-08-23 00:59:00,
2013-08-22 18:04:00,78.1,59.6,28.86,North,0,0.0,0.0,53,0.00,,,0.00,WUHU216HW,2013-08-23 01:04:00,
2013-08-22 18:09:00,77.9,60.0,28.84,North,0,0.0,0.0,54,0.00,,,0.00,WUHU216HW,2013-08-23 01:09:00,
2013-08-22 18:14:00,77.6,59.6,28.87,North,0,0.0,0.0,54,0.00,,,0.00,WUHU216HW,2013-08-23 01:14:00,
2013-08-22 18:19:00,77.4,59.4,28.81,North,0,0.0,0.0,54,0.00,,,0.00,WUHU216HW,2013-08-23 01:19:00,
2013-08-22 18:24:00,77.4,59.4,28.84,North,0,0.0,0.0,54,0.00,,,0.00,WUHU216HW,2013-08-23 01:24:00,
2013-08-22 18:29:00,77.2,59.2,28.79,North,0,0.0,0.0,54,0.00,,,0.00,WUHU216HW,2013-08-23 01:29:00,
2013-08-22 18:34:00,77.0,59.6,28.84,North,0,0.0,0.0,55,0.00,,,0.00,WUHU216HW,2013-08-23 01:34:00,
2013-08-22 18:39:00,76.9,59.4,29.01,North,0,0.0,0.0,55,0.00,,,0.00,WUHU216HW,2013-08-23 01:39:00,
2013-08-22 18:44:00,76.7,59.2,28.98,North,0,0.0,0.0,55,0.00,,,0.00,WUHU216HW,2013-08-23 01:44:00,
2013-08-22 18:49:00,76.5,59.1,29.10,North,0,0.0,0.0,55,0.00,,,0.00,WUHU216HW,2013-08-23 01:49:00,
2013-08-22 18:54:00,76.1,59.3,29.05,North,0,0.0,0.0,56,0.00,,,0.00,WUHU216HW,2013-08-23 01:54:00,
2013-08-22 18:59:00,76.0,59.1,29.12,North,0,0.0,0.0,56,0.00,,,0.00,WUHU216HW,2013-08-23 01:59:00,
2013-08-22 19:04:00,75.6,58.8,29.14,North,0,0.0,0.0,56,0.00,,,0.00,WUHU216HW,2013-08-23 02:04:00,
2013-08-22 19:09:00,75.2,58.5,29.19,North,0,0.0,0.0,56,0.00,,,0.00,WUHU216HW,2013-08-23 02:09:00,
2013-08-22 19:14:00,75.1,58.8,29.15,North,0,0.0,0.0,57,0.00,,,0.00,WUHU216HW,2013-08-23 02:14:00,
2013-08-22 19:19:00,74.7,58.4,29.17,North,0,0.0,0.0,57,0.00,,,0.00,WUHU216HW,2013-08-23 02:19:00,
2013-08-22 19:24:00,74.5,58.2,29.19,North,0,0.0,0.0,57,0.00,,,0.00,WUHU216HW,2013-08-23 02:24:00,
2013-08-22 19:29:00,74.3,58.1,29.18,North,0,0.0,0.0,57,0.00,,,0.00,WUHU216HW,2013-08-23 02:29:00,
2013-08-22 19:34:00,74.2,58.4,29.21,North,0,0.0,0.0,58,0.00,,,0.00,WUHU216HW,2013-08-23 02:34:00,
2013-08-22 19:39:00,73.8,58.1,29.21,North,0,0.0,0.0,58,0.00,,,0.00,WUHU216HW,2013-08-23 02:39:00,
2013-08-22 19:44:00,73.4,58.1,29.26,North,0,0.0,0.0,59,0.00,,,0.00,WUHU216HW,2013-08-23 02:44:00,
2013-08-22 19:49:00,73.1,57.9,29.20,North,0,0.0,0.0,59,0.00,,,0.00,WUHU216HW,2013-08-23 02:49:00,
2013-08-22 19:54:00,72.9,57.7,29.27,North,0,0.0,0.0,59,0.00,,,0.00,WUHU216HW,2013-08-23 02:54:00,
2013-08-22 19:59:00,72.5,57.9,29.21,North,0,0.0,0.0,60,0.00,,,0.00,WUHU216HW,2013-08-23 02:59:00,
2013-08-22 20:04:00,72.4,57.7,29.21,North,0,0.0,0.0,60,0.00,,,0.00,WUHU216HW,2013-08-23 03:04:00,
2013-08-22 20:09:00,72.2,57.5,29.24,North,0,0.0,0.0,60,0.00,,,0.00,WUHU216HW,2013-08-23 03:09:00,
2013-08-22 20:14:00,72.0,57.8,29.25,North,0,0.0,0.0,61,0.00,,,0.00,WUHU216HW,2013-08-23 03:14:00,
2013-08-22 20:19:00,71.6,57.5,29.22,North,0,0.0,0.0,61,0.00,,,0.00,WUHU216HW,2013-08-23 03:19:00,
2013-08-22 20:24:00,71.6,57.5,29.24,North,0,0.0,0.0,61,0.00,,,0.00,WUHU216HW,2013-08-23 03:24:00,
2013-08-22 20:29:00,71.5,57.3,29.29,North,0,0.0,0.0,61,0.00,,,0.00,WUHU216HW,2013-08-23 03:29:00,
2013-08-22 20:34:00,71.3,57.6,29.26,North,0,0.0,0.0,62,0.00,,,0.00,WUHU216HW,2013-08-23 03:34:00,
2013-08-22 20:39:00,71.1,57.4,29.27,North,0,0.0,0.0,62,0.00,,,0.00,WUHU216HW,2013-08-23 03:39:00,
2013-08-22 20:44:00,70.9,57.2,29.25,North,0,0.0,0.0,62,0.00,,,0.00,WUHU216HW,2013-08-23 03:44:00,
2013-08-22 20:49:00,70.9,56.9,29.32,North,0,0.0,0.0,61,0.00,,,0.00,WUHU216HW,2013-08-23 03:49:00,
2013-08-22 20:54:00,70.6,57.0,29.26,North,0,0.0,0.0,62,0.00,,,0.00,WUHU216HW,2013-08-23 03:54:00,
2013-08-22 20:59:00,70.4,56.8,29.32,North,0,0.0,0.0,62,0.00,,,0.00,WUHU216HW,2013-08-23 03:59:00,
2013-08-22 21:01:00,70.4,56.8,29.25,North,0,0.0,0.0,62,0.00,,,0.00,WUHU216HW,2013-08-23 04:01:00,
2013-08-22 21:06:00,70.2,56.6,29.29,North,0,0.0,0.0,62,0.00,,,0.00,WUHU216HW,2013-08-23 04:06:00,
2013-08-22 21:11:00,69.8,56.7,29.26,North,0,0.0,0.0,63,0.00,,,0.00,WUHU216HW,2013-08-23 04:11:00,
2013-08-22 21:16:00,69.7,56.5,29.31,North,0,0.0,0.0,63,0.00,,,0.00,WUHU216HW,2013-08-23 04:16:00,
2013-08-22 21:21:00,69.5,56.4,29.29,North,0,0.0,0.0,63,0.00,,,0.00,WUHU216HW,2013-08-23 04:21:00,
2013-08-22 21:26:00,69.3,56.6,29.29,North,0,0.0,0.0,64,0.00,,,0.00,WUHU216HW,2013-08-23 04:26:00,
2013-08-22 21:31:00,69.1,56.4,29.29,North,0,0.0,0.0,64,0.00,,,0.00,WUHU216HW,2013-08-23 04:31:00,
2013-08-22 21:36:00,68.8,56.5,29.26,North,0,0.0,0.0,65,0.00,,,0.00,WUHU216HW,2013-08-23 04:36:00,
2013-08-22 21:41:00,68.8,56.5,29.33,North,0,0.0,0.0,65,0.00,,,0.00,WUHU216HW,2013-08-23 04:41:00,
2013-08-22 21:46:00,68.6,57.6,29.28,North,0,0.0,0.0,68,0.00,,,0.00,WUHU216HW,2013-08-23 04:46:00,
2013-08-22 21:51:00,68.4,57.0,29.32,North,0,0.0,0.0,67,0.00,,,0.00,WUHU216HW,2013-08-23 04:51:00,
2013-08-22 21:56:00,68.2,56.8,29.27,North,0,0.0,0.0,67,0.00,,,0.00,WUHU216HW,2013-08-23 04:56:00,
2013-08-22 22:01:00,68.0,56.7,29.27,North,0,0.0,0.0,67,0.00,,,0.00,WUHU216HW,2013-08-23 05:01:00,
2013-08-22 22:06:00,68.0,56.7,29.25,North,0,0.0,0.0,67,0.00,,,0.00,WUHU216HW,2013-08-23 05:06:00,
2013-08-22 22:11:00,67.9,56.5,29.22,North,0,0.0,0.0,67,0.00,,,0.00,WUHU216HW,2013-08-23 05:11:00,
2013-08-22 22:16:00,67.7,56.7,29.16,North,0,0.0,0.0,68,0.00,,,0.00,WUHU216HW,2013-08-23 05:16:00,
2013-08-22 22:21:00,67.3,56.4,29.21,North,0,0.0,0.0,68,0.00,,,0.00,WUHU216HW,2013-08-23 05:21:00,
2013-08-22 22:26:00,67.1,56.6,29.26,North,0,0.0,0.0,69,0.00,,,0.00,WUHU216HW,2013-08-23 05:26:00,
2013-08-22 22:31:00,67.0,56.4,29.25,North,0,0.0,0.0,69,0.00,,,0.00,WUHU216HW,2013-08-23 05:31:00,
2013-08-22 22:36:00,66.8,56.3,29.17,North,0,0.0,0.0,69,0.00,,,0.00,WUHU216HW,2013-08-23 05:36:00,
2013-08-22 22:41:00,66.6,56.5,29.12,North,0,0.0,0.0,70,0.00,,,0.00,WUHU216HW,2013-08-23 05:41:00,
2013-08-22 22:46:00,66.4,56.3,29.25,North,0,0.0,0.0,70,0.00,,,0.00,WUHU216HW,2013-08-23 05:46:00,
2013-08-22 22:51:00,66.2,56.2,29.24,North,0,0.0,0.0,70,0.00,,,0.00,WUHU216HW,2013-08-23 05:51:00,
2013-08-22 22:56:00,66.1,56.3,29.17,North,0,0.0,0.0,71,0.00,,,0.00,WUHU216HW,2013-08-23 05:56:00,
2013-08-22 23:01:00,65.9,56.3,29.20,North,0,0.0,0.0,71,0.00,,,0.00,WUHU216HW,2013-08-23 06:01:00,
2013-08-22 23:06:00,65.7,56.4,29.19,North,0,0.0,0.0,72,0.00,,,0.00,WUHU216HW,2013-08-23 06:06:00,
2013-08-22 23:11:00,65.5,56.3,29.14,North,0,0.0,0.0,72,0.00,,,0.00,WUHU216HW,2013-08-23 06:11:00,
2013-08-22 23:16:00,65.3,56.1,29.14,North,0,0.0,0.0,72,0.00,,,0.00,WUHU216HW,2013-08-23 06:16:00,
2013-08-22 23:21:00,65.2,55.9,28.98,North,0,0.0,0.0,72,0.00,,,0.00,WUHU216HW,2013-08-23 06:21:00,
2013-08-22 23:26:00,65.0,56.2,29.08,North,0,0.0,0.0,73,0.00,,,0.00,WUHU216HW,2013-08-23 06:26:00,
2013-08-22 23:31:00,64.8,56.0,29.02,North,0,0.0,0.0,73,0.00,,,0.00,WUHU216HW,2013-08-23 06:31:00,
2013-08-22 23:36:00,64.6,55.8,28.95,North,0,0.0,0.0,73,0.00,,,0.00,WUHU216HW,2013-08-23 06:36:00,
2013-08-22 23:41:00,64.6,56.2,28.91,North,0,0.0,0.0,74,0.00,,,0.00,WUHU216HW,2013-08-23 06:41:00,
2013-08-22 23:46:00,64.6,56.2,28.89,North,0,0.0,0.0,74,0.00,,,0.00,WUHU216HW,2013-08-23 06:46:00,
2013-08-22 23:51:00,64.4,56.0,28.85,North,0,0.0,0.0,74,0.00,,,0.00,WUHU216HW,2013-08-23 06:51:00,
2013-08-22 23:56:00,64.4,56.0,28.92,North,0,0.0,0.0,74,0.00,,,0.00,WUHU216HW,2013-08-23 06:56:00,